Date String (YYYY-MM-DD hh:mm:ss) UTC,Instrument flags,absolute air pressure of the measurement (hPa),sample flow rate (lpm),inlet stack bypass flow (lpm),air temperature of the measurement (°C),ambient temperature measured by the external sensor (°C),aerosol sample conditioner tube jacket temperature (°C),OPC LED temperature (°C),internal box temperature (°C),relative humidity of the measurement (%),span deviation,mass concentration of particles derived from Lorenz-Mie calculation of OPC scattering (μg/m³),mass concentration of particles derived from Lorenz-Mie calculation of OPC scattering (μg/m³),mass concentration of particles derived from Lorenz-Mie calculation of OPC scattering (μg/m³)
DateTimeUTC,F1_M11,P_M11,Q1_M11,Q2_M11,T1_M11,T2_M11,T3_M11,T4_M11,T5_M11,U1_M11,ZSPAN_M11,X2_M11,X0_M11,X1_M11
2024-05-21 12:00:00,SystemResetWarning,0823.5,5.00,000.00,026.6,025.8,000.0,035.1,028.4,022.9,0000.0,0002.43,0003.34,0002.13
2024-05-21 12:01:00,SystemResetWarning,0823.5,4.99,000.00,026.6,025.8,000.0,035.1,028.5,022.9,0000.0,0002.25,0002.88,0001.98
2024-05-21 12:02:00,SystemResetWarning,0823.6,5.00,000.00,026.6,025.8,000.0,035.1,028.4,023.0,0000.0,0002.15,0002.84,0001.85
2024-05-21 12:03:00,SystemResetWarning,0823.6,5.01,000.00,026.6,025.8,000.0,035.1,028.4,022.9,0000.0,0002.04,0002.77,0001.73
2024-05-21 12:04:00,SystemResetWarning,0823.6,4.99,000.00,026.6,025.8,000.0,035.1,028.4,022.8,0000.0,0001.94,0002.73,0001.61
2024-05-21 12:05:00,SystemResetWarning,0823.6,4.98,000.00,026.6,025.8,000.0,035.1,028.4,022.8,0000.0,0001.82,0002.66,0001.47
2024-05-21 12:06:00,SystemResetWarning,0823.6,5.01,000.00,026.6,025.8,000.0,035.1,028.4,022.8,0000.0,0001.67,0002.44,0001.35
2024-05-21 12:07:00,SystemResetWarning,0823.6,5.01,000.00,026.6,025.8,000.0,035.1,028.4,022.8,0000.0,0001.56,0002.30,0001.25
2024-05-21 12:08:00,SystemResetWarning,0823.6,5.01,000.00,026.6,025.7,000.0,035.0,028.4,022.8,0000.0,0001.47,0002.22,0001.17
2024-05-21 12:09:00,SystemResetWarning,0823.6,4.99,000.00,026.6,025.7,000.0,035.1,028.4,022.7,0000.0,0001.37,0002.02,0001.10
2024-05-21 12:10:00,SystemResetWarning,0823.6,4.99,000.00,026.6,025.7,000.0,035.1,028.4,022.8,0000.0,0001.30,0001.93,0001.04
2024-05-21 12:11:00,SystemResetWarning,0823.5,5.01,000.00,026.5,025.7,000.0,035.1,028.3,022.8,0000.0,0001.26,0001.90,0001.01
2024-05-21 12:12:00,SystemResetWarning,0823.5,5.01,000.00,026.5,025.7,000.0,035.1,028.3,022.9,0000.0,0001.24,0001.83,0001.00
2024-05-21 12:13:00,SystemResetWarning,0823.5,5.01,000.00,026.5,025.6,000.0,035.1,028.3,022.8,0000.0,0001.20,0001.74,0000.97
2024-05-21 12:14:00,SystemResetWarning,0823.5,4.99,000.00,026.5,025.6,000.0,035.0,028.3,022.9,0000.0,0001.19,0001.75,0000.95
2024-05-21 12:15:00,SystemResetWarning,0823.5,5.00,000.00,026.5,025.6,000.0,035.0,028.3,023.1,0000.0,0001.17,0001.75,0000.93
2024-05-21 12:16:00,SystemResetWarning,0823.5,5.01,000.00,026.5,025.6,000.0,035.0,028.3,023.3,0000.0,0001.14,0001.64,0000.94
2024-05-21 12:17:00,SystemResetWarning,0823.5,5.00,000.00,026.5,025.6,000.0,035.0,028.3,023.4,0000.0,0001.17,0001.75,0000.95
2024-05-21 12:18:00,SystemResetWarning,0823.5,4.99,000.00,026.5,025.6,000.0,035.0,028.3,023.6,0000.0,0001.19,0001.78,0000.97
2024-05-21 12:19:00,SystemResetWarning,0823.5,5.01,000.00,026.5,025.6,000.0,035.0,028.2,023.8,0000.0,0001.17,0001.67,0000.98
2024-05-21 12:20:00,SystemResetWarning,0823.5,5.01,000.00,026.4,025.6,000.0,035.0,028.2,024.0,0000.0,0001.20,0001.73,0001.00
2024-05-21 12:21:00,SystemResetWarning,0823.6,5.00,000.00,026.4,025.6,000.0,034.9,028.2,024.0,0000.0,0001.26,0001.82,0001.01
2024-05-21 12:22:00,SystemResetWarning,0823.6,4.99,000.00,026.4,025.6,000.0,034.9,028.3,024.2,0000.0,0001.26,0001.79,0001.03
2024-05-21 12:23:00,SystemResetWarning,0823.6,5.00,000.00,026.4,025.6,000.0,034.9,028.3,024.4,0000.0,0001.26,0001.81,0001.03
2024-05-21 12:24:00,SystemResetWarning,0823.6,5.02,000.00,026.4,025.6,000.0,034.9,028.3,024.5,0000.0,0001.29,0001.86,0001.04
2024-05-21 12:25:00,SystemResetWarning,0823.7,5.00,000.00,026.4,025.6,000.0,034.9,028.3,024.5,0000.0,0001.29,0001.85,0001.05
2024-05-21 12:26:00,SystemResetWarning,0823.7,4.99,000.00,026.4,025.6,000.0,034.9,028.3,024.5,0000.0,0001.29,0001.79,0001.08
2024-05-21 12:27:00,SystemResetWarning,0823.7,5.00,000.00,026.4,025.6,000.0,034.9,028.3,024.5,0000.0,0001.30,0001.80,0001.09
2024-05-21 12:28:00,SystemResetWarning,0823.7,5.01,000.00,026.4,025.6,000.0,034.9,028.2,024.5,0000.0,0001.30,0001.76,0001.11
2024-05-21 12:29:00,SystemResetWarning,0823.8,5.01,000.00,026.4,025.6,000.0,034.9,028.2,024.6,0000.0,0001.33,0001.75,0001.12
2024-05-21 12:30:00,SystemResetWarning,0823.8,4.99,000.00,026.4,025.6,000.0,034.9,028.2,024.7,0000.0,0001.39,0001.82,0001.16
2024-05-21 12:31:00,SystemResetWarning,0823.8,4.98,000.00,026.4,025.6,000.0,034.8,028.2,024.7,0000.0,0001.45,0001.88,0001.22
2024-05-21 12:32:00,SystemResetWarning,0823.8,5.01,000.00,026.4,025.6,000.0,034.8,028.2,024.4,0000.0,0001.48,0001.98,0001.25
2024-05-21 12:33:00,SystemResetWarning,0823.8,5.01,000.00,026.4,025.6,000.0,034.8,028.2,024.2,0000.0,0001.50,0002.15,0001.27
2024-05-21 12:34:00,SystemResetWarning,0823.8,4.99,000.00,026.4,025.6,000.0,034.8,028.2,024.2,0000.0,0001.56,0002.38,0001.28
2024-05-21 12:35:00,SystemResetWarning,0823.8,5.00,000.00,026.4,025.6,000.0,034.8,028.2,024.1,0000.0,0001.62,0002.53,0001.30
2024-05-21 12:36:00,SystemResetWarning,0823.8,5.01,000.00,026.4,025.6,000.0,034.8,028.2,023.8,0000.0,0001.61,0002.47,0001.31
2024-05-21 12:37:00,SystemResetWarning,0823.8,5.00,000.00,026.4,025.6,000.0,034.8,028.2,023.9,0000.0,0001.61,0002.46,0001.31
2024-05-21 12:38:00,SystemResetWarning,0823.7,5.01,000.00,026.4,025.6,000.0,034.8,028.2,023.9,0000.0,0001.62,0002.45,0001.33
2024-05-21 12:39:00,SystemResetWarning,0823.7,4.99,000.00,026.4,025.6,000.0,034.8,028.2,023.9,0000.0,0001.68,0002.66,0001.33
2024-05-21 12:40:00,SystemResetWarning,0823.6,4.99,000.00,026.4,025.6,000.0,034.8,028.2,023.6,0000.0,0001.68,0003.92,0001.32
2024-05-21 12:41:00,SystemResetWarning,0823.6,5.01,000.00,026.4,025.6,000.0,034.8,028.2,023.8,0000.0,0001.67,0004.11,0001.29
2024-05-21 12:42:00,SystemResetWarning,0823.6,5.01,000.00,026.4,025.6,000.0,034.8,028.2,023.7,0000.0,0001.60,0004.13,0001.22
2024-05-21 12:43:00,SystemResetWarning,0823.6,4.99,000.00,026.4,025.6,000.0,034.8,028.2,023.5,0000.0,0001.50,0003.95,0001.15
2024-05-21 12:44:00,SystemResetWarning,0823.6,4.99,000.00,026.4,025.6,000.0,034.8,028.1,023.4,0000.0,0001.46,0003.73,0001.12
2024-05-21 12:45:00,SystemResetWarning,0823.6,4.99,000.00,026.4,025.6,000.0,034.8,028.1,023.8,0000.0,0001.39,0003.55,0001.10
2024-05-21 12:46:00,SystemResetWarning,0823.6,5.01,000.00,026.4,025.6,000.0,034.7,028.1,023.5,0000.0,0001.32,0003.38,0001.09
2024-05-21 12:47:00,SystemResetWarning,0823.6,5.01,000.00,026.4,025.5,000.0,034.7,028.1,023.2,0000.0,0001.29,0003.35,0001.06
2024-05-21 12:48:00,SystemResetWarning,0823.6,4.99,000.00,026.3,025.5,000.0,034.7,028.1,023.7,0000.0,0001.28,0003.71,0001.03
2024-05-21 12:49:00,SystemResetWarning,0823.6,4.98,000.00,026.3,025.5,000.0,034.7,028.1,023.8,0000.0,0001.24,0004.79,0000.99
2024-05-21 12:50:00,SystemResetWarning,0823.6,5.01,000.00,026.3,025.5,000.0,034.7,028.1,023.8,0000.0,0001.18,0005.49,0000.97
2024-05-21 12:51:00,SystemResetWarning,0823.6,5.01,000.00,026.3,025.5,000.0,034.7,028.1,023.8,0000.0,0001.14,0004.30,0000.94
2024-05-21 12:52:00,SystemResetWarning,0823.6,4.99,000.00,026.3,025.5,000.0,034.7,028.1,023.4,0000.0,0001.10,0004.35,0000.92
2024-05-21 12:53:00,SystemResetWarning,0823.7,4.99,000.00,026.3,025.5,000.0,034.7,028.1,023.7,0000.0,0001.06,0004.32,0000.91
2024-05-21 12:54:00,SystemResetWarning,0823.7,5.00,000.00,026.3,025.5,000.0,034.7,028.1,023.4,0000.0,0001.06,0004.38,0000.89
2024-05-21 12:55:00,SystemResetWarning,0823.6,5.01,000.00,026.3,025.5,000.0,034.7,028.1,023.0,0000.0,0001.04,0004.34,0000.87
2024-05-21 12:56:00,SystemResetWarning,0823.5,5.01,000.00,026.3,025.5,000.0,034.7,028.1,022.8,0000.0,0001.02,0004.30,0000.84
2024-05-21 12:57:00,SystemResetWarning,0823.5,5.00,000.00,026.3,025.5,000.0,034.7,028.1,022.6,0000.0,0000.99,0004.25,0000.80
2024-05-21 12:58:00,SystemResetWarning,0823.4,4.99,000.00,026.3,025.5,000.0,034.7,028.1,022.4,0000.0,0000.95,0004.19,0000.76
2024-05-21 12:59:00,SystemResetWarning,0823.5,5.00,000.00,026.3,025.5,000.0,034.7,028.1,022.4,0000.0,0000.92,0003.79,0000.73
